AFR9 WSSS-ZSPD

Flight info

Callsign AFR9
Flight time 2h 33m
Altitude 60000
Route DCT VMR M771 DUDIS M771 DOSUT M771 DULOP Q1 CARSO DCT NOBAD DCT SANKU DCT BESDA V611 LELIM M503 TOLAK M503 NUDPO W121 DST B221 PAMVU V74 BK
Aircraft CONC/H-SDE2E3FGHIRYW/X

Departure

Time 2026-05-06 13:57
Airport Singapore Changi Airport (WSSS)

Arrival

Time 2026-05-06 16:30
Airport Shanghai Pudong International Airport (ZSPD)
Time Latitude Longitude Altitude Speed Heading
2026-05-06 13:24 1.36355 103.99420 37 ft 0 kts 323°
2026-05-06 13:49 1.36340 103.99432 37 ft 4 kts 323°
2026-05-06 13:50 1.36323 103.99444 35 ft 3 kts 324°
2026-05-06 13:50 1.36304 103.99458 34 ft 4 kts 338°
2026-05-06 13:50 1.36291 103.99455 34 ft 4 kts 52°
2026-05-06 13:50 1.36276 103.99436 36 ft 3 kts 52°
2026-05-06 13:51 1.36273 103.99432 36 ft 0 kts 53°
2026-05-06 13:53 1.36280 103.99441 32 ft 4 kts 52°
2026-05-06 13:53 1.36306 103.99474 36 ft 8 kts 52°
2026-05-06 13:54 1.36334 103.99536 37 ft 11 kts 84°
2026-05-06 13:54 1.36310 103.99613 37 ft 12 kts 112°
2026-05-06 13:54 1.36276 103.99693 36 ft 13 kts 113°
2026-05-06 13:54 1.36240 103.99777 37 ft 14 kts 113°
2026-05-06 13:55 1.36205 103.99863 37 ft 12 kts 114°
2026-05-06 13:55 1.36158 103.99878 37 ft 5 kts 183°
2026-05-06 13:55 1.36143 103.99874 35 ft 0 kts 197°
2026-05-06 13:56 1.35893 103.99771 37 ft 80 kts 202°
2026-05-06 13:56 1.35117 103.99444 37 ft 160 kts 203°
2026-05-06 13:57 1.33964 103.98959 36 ft 184 kts 203°
2026-05-06 13:57 1.32630 103.98403 92 ft 236 kts 203°
2026-05-06 13:57 1.31075 103.97775 1193 ft 244 kts 201°
2026-05-06 13:57 1.29431 103.97122 2125 ft 272 kts 201°
2026-05-06 13:58 1.27731 103.96450 3060 ft 257 kts 201°
2026-05-06 13:58 1.25997 103.95772 3063 ft 272 kts 201°
2026-05-06 13:58 1.24202 103.95074 3235 ft 290 kts 201°
2026-05-06 13:58 1.22267 103.94324 4488 ft 307 kts 201°
2026-05-06 13:59 1.20419 103.93607 5428 ft 265 kts 202°
2026-05-06 13:59 1.18840 103.92652 5884 ft 275 kts 221°
2026-05-06 13:59 1.17220 103.91669 6432 ft 276 kts 189°
2026-05-06 13:59 1.15320 103.91726 6948 ft 278 kts 155°
2026-05-06 14:00 1.13767 103.92849 7490 ft 281 kts 121°
2026-05-06 14:00 1.12959 103.94626 8082 ft 284 kts 105°
2026-05-06 14:00 1.12617 103.95888 8469 ft 285 kts 103°
2026-05-06 14:00 1.12308 103.98519 9248 ft 290 kts 74°
2026-05-06 14:01 1.12788 103.99764 9674 ft 293 kts 53°
2026-05-06 14:01 1.14102 104.01327 10297 ft 295 kts 44°
2026-05-06 14:01 1.15619 104.02764 11265 ft 301 kts 41°
2026-05-06 14:01 1.17175 104.04135 12717 ft 299 kts 41°
2026-05-06 14:02 1.19332 104.05958 14104 ft 314 kts 40°
2026-05-06 14:02 1.21044 104.07369 15061 ft 324 kts 38°
2026-05-06 14:02 1.22319 104.08169 15718 ft 332 kts 20°
2026-05-06 14:02 1.24620 104.08565 16708 ft 345 kts 358°
2026-05-06 14:03 1.27052 104.08345 17651 ft 359 kts 353°
2026-05-06 14:03 1.29568 104.07948 18481 ft 373 kts 351°
2026-05-06 14:03 1.32172 104.07468 19280 ft 387 kts 350°
2026-05-06 14:03 1.34856 104.06940 20115 ft 399 kts 350°
2026-05-06 14:04 1.37621 104.06376 20965 ft 412 kts 350°
2026-05-06 14:04 1.40436 104.05791 21713 ft 416 kts 350°
2026-05-06 14:04 1.43290 104.05193 22388 ft 422 kts 350°
2026-05-06 14:04 1.46142 104.04590 23048 ft 428 kts 350°
2026-05-06 14:05 1.49074 104.03969 23680 ft 433 kts 350°
2026-05-06 14:05 1.52040 104.03338 24241 ft 438 kts 350°
2026-05-06 14:05 1.55042 104.02700 24811 ft 444 kts 350°
2026-05-06 14:05 1.58081 104.02070 25389 ft 449 kts 351°
2026-05-06 14:06 1.61163 104.01465 25986 ft 454 kts 351°
2026-05-06 14:06 1.64287 104.00867 26549 ft 460 kts 351°
2026-05-06 14:06 1.67452 104.00268 27132 ft 466 kts 351°
2026-05-06 14:06 1.70656 103.99665 27716 ft 471 kts 351°
2026-05-06 14:07 1.73896 103.99058 28316 ft 477 kts 351°
2026-05-06 14:07 1.77134 103.98453 28926 ft 482 kts 351°
2026-05-06 14:07 1.80449 103.97835 29519 ft 488 kts 351°
2026-05-06 14:07 1.83808 103.97210 30054 ft 496 kts 351°
2026-05-06 14:08 1.87257 103.96571 30522 ft 512 kts 351°
2026-05-06 14:08 1.90814 103.95913 30941 ft 530 kts 351°
2026-05-06 14:08 1.94527 103.95230 31023 ft 553 kts 351°
2026-05-06 14:08 1.98358 103.94525 31478 ft 566 kts 351°
2026-05-06 14:09 2.02272 103.93806 31976 ft 578 kts 351°
2026-05-06 14:09 2.06265 103.93073 32472 ft 587 kts 351°
2026-05-06 14:09 2.10300 103.92334 32979 ft 590 kts 351°
2026-05-06 14:09 2.14284 103.91604 33458 ft 591 kts 351°
2026-05-06 14:10 2.18333 103.90864 33909 ft 591 kts 351°
2026-05-06 14:10 2.22376 103.90125 34288 ft 591 kts 351°
2026-05-06 14:10 2.26412 103.89391 34666 ft 588 kts 351°
2026-05-06 14:10 2.30439 103.88660 35049 ft 588 kts 351°
2026-05-06 14:11 2.34476 103.87964 35341 ft 589 kts 357°
2026-05-06 14:11 2.38536 103.88004 35587 ft 582 kts 12°
2026-05-06 14:11 2.42411 103.89063 35833 ft 576 kts 27°
2026-05-06 14:11 2.45809 103.91062 35884 ft 576 kts 39°
2026-05-06 14:12 2.52364 103.95793 35893 ft 588 kts 31°
2026-05-06 14:12 2.59540 103.99977 35905 ft 609 kts 32°
2026-05-06 14:13 2.63200 104.02217 35902 ft 624 kts 33°
2026-05-06 14:13 2.66918 104.04562 35920 ft 637 kts 33°
2026-05-06 14:13 2.70682 104.06927 36379 ft 641 kts 33°
2026-05-06 14:13 2.74422 104.09262 36975 ft 643 kts 33°
2026-05-06 14:14 2.78220 104.11630 37565 ft 644 kts 33°
2026-05-06 14:14 2.82029 104.14001 38185 ft 645 kts 33°
2026-05-06 14:14 2.85836 104.16370 38909 ft 644 kts 33°
2026-05-06 14:14 2.89633 104.18734 39615 ft 642 kts 33°
2026-05-06 14:15 2.93428 104.21097 40339 ft 642 kts 33°
2026-05-06 14:15 2.97225 104.23463 41085 ft 644 kts 33°
2026-05-06 14:15 3.01037 104.25838 41861 ft 648 kts 32°
2026-05-06 14:15 3.04874 104.28229 42669 ft 652 kts 32°
2026-05-06 14:16 3.08681 104.30607 43486 ft 656 kts 32°
2026-05-06 14:16 3.12562 104.33045 44100 ft 665 kts 32°
2026-05-06 14:16 3.16522 104.35534 44193 ft 680 kts 32°
2026-05-06 14:16 3.20580 104.38076 44251 ft 697 kts 32°
2026-05-06 14:17 3.24742 104.40680 44279 ft 713 kts 32°
2026-05-06 14:17 3.29000 104.43342 44308 ft 730 kts 32°
2026-05-06 14:17 3.33360 104.46067 44339 ft 748 kts 32°
2026-05-06 14:17 3.37824 104.48857 44384 ft 765 kts 32°
2026-05-06 14:18 3.42330 104.51672 44505 ft 782 kts 32°
2026-05-06 14:18 3.46997 104.54587 44637 ft 800 kts 32°
2026-05-06 14:18 3.51776 104.57562 44754 ft 818 kts 32°
2026-05-06 14:18 3.56669 104.60603 44873 ft 838 kts 32°
2026-05-06 14:19 3.61688 104.63721 44988 ft 860 kts 32°
2026-05-06 14:19 3.66835 104.66917 45105 ft 883 kts 32°
2026-05-06 14:19 3.72130 104.70206 45216 ft 908 kts 32°
2026-05-06 14:19 3.77572 104.73585 45318 ft 933 kts 32°
2026-05-06 14:20 3.83091 104.77012 45432 ft 960 kts 32°
2026-05-06 14:20 3.88842 104.80579 45541 ft 985 kts 32°
2026-05-06 14:20 3.94742 104.84236 45876 ft 1006 kts 32°
2026-05-06 14:20 4.00734 104.87947 46903 ft 1017 kts 32°
2026-05-06 14:21 4.06777 104.91688 48141 ft 1025 kts 32°
2026-05-06 14:21 4.12863 104.95457 49353 ft 1032 kts 32°
2026-05-06 14:21 4.19007 104.99262 50105 ft 1045 kts 32°
2026-05-06 14:21 4.25240 105.03125 50114 ft 1064 kts 32°
2026-05-06 14:22 4.31593 105.07068 50006 ft 1083 kts 32°
2026-05-06 14:22 4.38049 105.11079 49939 ft 1102 kts 32°
2026-05-06 14:22 4.44524 105.15104 49924 ft 1119 kts 32°
2026-05-06 14:22 4.51153 105.19225 49958 ft 1119 kts 32°
2026-05-06 14:23 4.57765 105.23337 50964 ft 1119 kts 32°
2026-05-06 14:23 4.64297 105.27399 52239 ft 1085 kts 32°
2026-05-06 14:23 4.70586 105.31311 53540 ft 1044 kts 32°
2026-05-06 14:23 4.76721 105.35127 54796 ft 1036 kts 32°
2026-05-06 14:24 4.82869 105.38954 55215 ft 1047 kts 32°
2026-05-06 14:24 4.89045 105.42896 55481 ft 1055 kts 34°
2026-05-06 14:24 4.95178 105.46967 56290 ft 1058 kts 33°
2026-05-06 14:24 5.01329 105.51019 57167 ft 1059 kts 33°
2026-05-06 14:25 5.07419 105.55000 58031 ft 1059 kts 33°
2026-05-06 14:25 5.13592 105.59022 58901 ft 1058 kts 33°
2026-05-06 14:25 5.19758 105.63035 59741 ft 1057 kts 33°
2026-05-06 14:25 5.25941 105.67058 60101 ft 1063 kts 33°
2026-05-06 14:26 5.38457 105.75204 59971 ft 1082 kts 33°
2026-05-06 14:26 5.51191 105.83495 59933 ft 1099 kts 33°
2026-05-06 14:27 5.64028 105.91856 59909 ft 1116 kts 33°
2026-05-06 14:27 5.77142 106.00403 59925 ft 1131 kts 33°
2026-05-06 14:28 5.90266 106.08959 59879 ft 1112 kts 33°
2026-05-06 14:28 6.03177 106.17382 59895 ft 1106 kts 33°
2026-05-06 14:29 6.16109 106.25823 59904 ft 1110 kts 33°
2026-05-06 14:29 6.29002 106.34252 59895 ft 1114 kts 33°
2026-05-06 14:30 6.41990 106.42757 59891 ft 1114 kts 33°
2026-05-06 14:30 6.54997 106.51275 59898 ft 1117 kts 33°
2026-05-06 14:31 6.68030 106.59817 59896 ft 1119 kts 33°
2026-05-06 14:31 6.80969 106.68338 59891 ft 1120 kts 33°
2026-05-06 14:32 6.94022 106.76902 59900 ft 1120 kts 33°
2026-05-06 14:32 7.07036 106.85564 59894 ft 1122 kts 34°
2026-05-06 14:33 7.20025 106.94289 59898 ft 1122 kts 33°
2026-05-06 14:33 7.33005 107.02856 59890 ft 1123 kts 33°
2026-05-06 14:34 7.46079 107.11465 59894 ft 1123 kts 33°
2026-05-06 14:34 7.59163 107.20081 59894 ft 1124 kts 33°
2026-05-06 14:35 7.72246 107.28702 59898 ft 1121 kts 33°
2026-05-06 14:35 7.78736 107.32981 59893 ft 1109 kts 33°
2026-05-06 14:35 7.85087 107.37169 59890 ft 1102 kts 33°
2026-05-06 14:36 7.97946 107.45654 59899 ft 1106 kts 33°
2026-05-06 14:36 8.10860 107.54157 59896 ft 1111 kts 33°
2026-05-06 14:37 8.23804 107.62704 59900 ft 1113 kts 33°
2026-05-06 14:37 8.36768 107.71278 59904 ft 1115 kts 33°
2026-05-06 14:38 8.49678 107.79824 59891 ft 1117 kts 33°
2026-05-06 14:38 8.62675 107.88434 59896 ft 1118 kts 33°
2026-05-06 14:39 8.75696 107.97070 59901 ft 1121 kts 33°
2026-05-06 14:39 8.88732 108.05721 59895 ft 1121 kts 33°
2026-05-06 14:40 9.01781 108.14389 59898 ft 1122 kts 33°
2026-05-06 14:40 9.14759 108.23019 59906 ft 1125 kts 33°
2026-05-06 14:41 9.27833 108.31719 59902 ft 1125 kts 33°
2026-05-06 14:41 9.40920 108.40435 59919 ft 1127 kts 33°
2026-05-06 14:42 9.54005 108.49155 59885 ft 1124 kts 33°
2026-05-06 14:42 9.66988 108.57816 59899 ft 1125 kts 33°
2026-05-06 14:43 9.80051 108.66539 59902 ft 1124 kts 33°
2026-05-06 14:43 9.93121 108.75273 59905 ft 1124 kts 33°
2026-05-06 14:44 10.06192 108.84016 59914 ft 1128 kts 33°
2026-05-06 14:45 10.25801 108.97149 59905 ft 1134 kts 33°
2026-05-06 14:45 10.38972 109.05983 59922 ft 1134 kts 33°
2026-05-06 14:46 10.52152 109.14837 59903 ft 1137 kts 33°
2026-05-06 14:46 10.65237 109.23644 59913 ft 1136 kts 33°
2026-05-06 14:47 10.78400 109.32509 59908 ft 1133 kts 33°
2026-05-06 14:47 10.91546 109.41370 59911 ft 1134 kts 33°
2026-05-06 14:48 11.04692 109.50245 59912 ft 1133 kts 33°
2026-05-06 14:48 11.17830 109.59120 59912 ft 1134 kts 33°
2026-05-06 14:49 11.30876 109.67945 59908 ft 1133 kts 33°
2026-05-06 14:49 11.44013 109.76845 59907 ft 1135 kts 33°
2026-05-06 14:50 11.57171 109.85769 59909 ft 1136 kts 33°
2026-05-06 14:50 11.70321 109.94687 59910 ft 1135 kts 33°
2026-05-06 14:51 11.83391 110.03568 59928 ft 1137 kts 33°
2026-05-06 14:51 11.96551 110.12520 59914 ft 1135 kts 33°
2026-05-06 14:52 12.09691 110.21470 59919 ft 1135 kts 33°
2026-05-06 14:52 12.22827 110.30429 59918 ft 1136 kts 33°
2026-05-06 14:53 12.35972 110.39403 59920 ft 1135 kts 33°
2026-05-06 14:53 12.49034 110.48331 59940 ft 1139 kts 33°
2026-05-06 14:54 12.62219 110.57356 59927 ft 1139 kts 33°
2026-05-06 14:54 12.75386 110.66376 59927 ft 1140 kts 34°
2026-05-06 14:55 12.88574 110.75460 59924 ft 1142 kts 33°
2026-05-06 14:55 13.01767 110.84520 59926 ft 1141 kts 33°
2026-05-06 14:56 13.14883 110.93511 59932 ft 1142 kts 34°
2026-05-06 14:56 13.28061 111.02609 59931 ft 1142 kts 34°
2026-05-06 14:57 13.41250 111.11704 59933 ft 1141 kts 34°
2026-05-06 14:57 13.54432 111.20796 59933 ft 1143 kts 34°
2026-05-06 14:58 13.67529 111.29857 59935 ft 1140 kts 34°
2026-05-06 14:58 13.80690 111.38971 59935 ft 1141 kts 34°
2026-05-06 14:59 13.93853 111.48098 59940 ft 1141 kts 34°
2026-05-06 14:59 14.07013 111.57238 59933 ft 1141 kts 34°
2026-05-06 15:00 14.20086 111.66332 59933 ft 1141 kts 34°
2026-05-06 15:00 14.33243 111.75494 59935 ft 1141 kts 34°
2026-05-06 15:01 14.46403 111.84673 59937 ft 1142 kts 34°
2026-05-06 15:01 14.59562 111.93865 59943 ft 1142 kts 34°
2026-05-06 15:02 14.72632 112.03008 59941 ft 1143 kts 34°
2026-05-06 15:02 14.85781 112.12219 59939 ft 1142 kts 34°
2026-05-06 15:03 14.98929 112.21443 59938 ft 1141 kts 34°
2026-05-06 15:03 15.12060 112.30671 59938 ft 1141 kts 34°
2026-05-06 15:04 15.25109 112.39854 59943 ft 1142 kts 34°
2026-05-06 15:04 15.38237 112.49106 59947 ft 1142 kts 34°
2026-05-06 15:05 15.51376 112.58382 59936 ft 1142 kts 34°
2026-05-06 15:05 15.64513 112.67671 59942 ft 1142 kts 34°
2026-05-06 15:06 15.77548 112.76901 59952 ft 1143 kts 34°
2026-05-06 15:06 15.90672 112.86210 59946 ft 1142 kts 34°
2026-05-06 15:07 16.03783 112.95522 59944 ft 1142 kts 34°
2026-05-06 15:07 16.16891 113.04852 59945 ft 1141 kts 34°
2026-05-06 15:08 16.29991 113.14186 59950 ft 1141 kts 34°
2026-05-06 15:08 16.43000 113.23474 59944 ft 1142 kts 34°
2026-05-06 15:09 16.56096 113.32840 59944 ft 1142 kts 34°
2026-05-06 15:09 16.69197 113.42225 59951 ft 1142 kts 34°
2026-05-06 15:10 16.82304 113.51628 59947 ft 1144 kts 34°
2026-05-06 15:10 16.95313 113.60977 59948 ft 1144 kts 34°
2026-05-06 15:11 17.08420 113.70414 59944 ft 1145 kts 34°
2026-05-06 15:11 17.21529 113.79868 59951 ft 1144 kts 34°
2026-05-06 15:12 17.34630 113.89333 59954 ft 1144 kts 34°
2026-05-06 15:12 17.47637 113.98747 59951 ft 1144 kts 34°
2026-05-06 15:13 17.60729 114.08241 59950 ft 1145 kts 34°
2026-05-06 15:13 17.73817 114.17745 59946 ft 1144 kts 34°
2026-05-06 15:14 17.86904 114.27269 59964 ft 1145 kts 34°
2026-05-06 15:14 17.99922 114.36758 59958 ft 1148 kts 34°
2026-05-06 15:15 18.13008 114.46317 59944 ft 1145 kts 34°
2026-05-06 15:15 18.26869 114.54516 59782 ft 1146 kts 20°
2026-05-06 15:16 18.42205 114.58809 59693 ft 1142 kts
2026-05-06 15:16 18.50055 114.60121 59827 ft 1142 kts
2026-05-06 15:16 18.57873 114.61621 59905 ft 1143 kts 10°
2026-05-06 15:17 18.73358 114.65016 59943 ft 1143 kts 11°
2026-05-06 15:17 18.88918 114.68487 59955 ft 1144 kts 11°
2026-05-06 15:18 19.04132 114.73358 59766 ft 1147 kts 26°
2026-05-06 15:18 19.17809 114.82046 59755 ft 1148 kts 33°
2026-05-06 15:18 19.24477 114.86693 59868 ft 1147 kts 31°
2026-05-06 15:19 19.31252 114.91165 59917 ft 1148 kts 30°
2026-05-06 15:19 19.44889 114.99756 59962 ft 1148 kts 30°
2026-05-06 15:20 19.58589 115.08473 59961 ft 1149 kts 30°
2026-05-06 15:20 19.72275 115.17224 59961 ft 1148 kts 30°
2026-05-06 15:21 19.85955 115.26004 59974 ft 1149 kts 30°
2026-05-06 15:21 19.99528 115.34740 59971 ft 1148 kts 30°
2026-05-06 15:22 20.13185 115.43545 59966 ft 1148 kts 30°
2026-05-06 15:22 20.26839 115.52366 59972 ft 1148 kts 30°
2026-05-06 15:23 20.40486 115.61204 59972 ft 1148 kts 30°
2026-05-06 15:23 20.54052 115.70007 59986 ft 1149 kts 30°
2026-05-06 15:24 20.67698 115.78882 59980 ft 1148 kts 30°
2026-05-06 15:24 20.81347 115.87773 59998 ft 1151 kts 30°
2026-05-06 15:25 20.95008 115.96685 59987 ft 1149 kts 30°
2026-05-06 15:25 21.08651 116.05611 59999 ft 1151 kts 30°
2026-05-06 15:26 21.22203 116.14499 59989 ft 1149 kts 30°
2026-05-06 15:26 21.35852 116.23471 60009 ft 1151 kts 30°
2026-05-06 15:27 21.49485 116.32451 59995 ft 1150 kts 30°
2026-05-06 15:27 21.62432 116.42601 59896 ft 1156 kts 39°
2026-05-06 15:28 21.74670 116.53590 59971 ft 1154 kts 37°
2026-05-06 15:28 21.87220 116.64355 60006 ft 1152 kts 37°
2026-05-06 15:29 21.99825 116.75039 60005 ft 1154 kts 37°
2026-05-06 15:29 22.13323 116.84253 59828 ft 1147 kts 24°
2026-05-06 15:30 22.27502 116.91883 59951 ft 1147 kts 26°
2026-05-06 15:30 22.41561 117.00068 60009 ft 1148 kts 27°
2026-05-06 15:31 22.55564 117.08370 59999 ft 1148 kts 27°
2026-05-06 15:31 22.69602 117.16638 60012 ft 1148 kts 27°
2026-05-06 15:32 22.90440 117.29172 59962 ft 1151 kts 33°
2026-05-06 15:32 22.96854 117.34395 59800 ft 1156 kts 41°
2026-05-06 15:32 23.02542 117.40571 59697 ft 1159 kts 49°
2026-05-06 15:33 23.07650 117.47344 59811 ft 1159 kts 50°
2026-05-06 15:33 23.12736 117.54131 59913 ft 1159 kts 48°
2026-05-06 15:33 23.23375 117.67300 59990 ft 1158 kts 46°
2026-05-06 15:34 23.34138 117.80324 60034 ft 1159 kts 46°
2026-05-06 15:34 23.44780 117.93370 60013 ft 1159 kts 47°
2026-05-06 15:35 23.55467 118.06531 60055 ft 1161 kts 47°
2026-05-06 15:35 23.66141 118.19714 60020 ft 1159 kts 47°
2026-05-06 15:36 23.76809 118.32925 60048 ft 1160 kts 47°
2026-05-06 15:36 23.87393 118.46067 60020 ft 1160 kts 47°
2026-05-06 15:37 23.98040 118.59322 60013 ft 1160 kts 47°
2026-05-06 15:37 24.08681 118.72604 60004 ft 1161 kts 47°
2026-05-06 15:38 24.19316 118.85915 60006 ft 1161 kts 47°
2026-05-06 15:38 24.29938 118.99247 60029 ft 1162 kts 47°
2026-05-06 15:39 24.40477 119.12510 60004 ft 1161 kts 47°
2026-05-06 15:39 24.51086 119.25897 60034 ft 1163 kts 47°
2026-05-06 15:40 24.61676 119.39299 60019 ft 1162 kts 47°
2026-05-06 15:40 24.72273 119.52745 60023 ft 1164 kts 47°
2026-05-06 15:41 24.82848 119.66202 60018 ft 1162 kts 47°
2026-05-06 15:41 24.93351 119.79605 60028 ft 1164 kts 47°
2026-05-06 15:42 25.04444 119.92508 59889 ft 1155 kts 36°
2026-05-06 15:42 25.10851 119.97835 59788 ft 1152 kts 32°
2026-05-06 15:42 25.17466 120.02803 59879 ft 1150 kts 32°
2026-05-06 15:43 25.30452 120.13141 60006 ft 1153 kts 34°
2026-05-06 15:43 25.43147 120.23781 60013 ft 1152 kts 34°
2026-05-06 15:44 25.55963 120.34441 60033 ft 1153 kts 34°
2026-05-06 15:44 25.69163 120.44444 59925 ft 1147 kts 25°
2026-05-06 15:45 25.83399 120.52340 59972 ft 1143 kts 24°
2026-05-06 15:45 25.97444 120.60443 60020 ft 1146 kts 25°
2026-05-06 15:46 26.11481 120.68807 60026 ft 1146 kts 25°
2026-05-06 15:46 26.25544 120.77196 60071 ft 1146 kts 25°
2026-05-06 15:47 26.39614 120.85588 60034 ft 1147 kts 25°
2026-05-06 15:47 26.53629 120.93820 60022 ft 1145 kts 20°
2026-05-06 15:48 26.61050 120.96963 59848 ft 1139 kts 12°
2026-05-06 15:48 26.68753 120.98860 59710 ft 1128 kts
2026-05-06 15:48 26.84337 120.99394 59829 ft 1119 kts 353°
2026-05-06 15:49 26.99615 120.96580 59867 ft 1109 kts 340°
2026-05-06 15:49 27.13794 120.90210 59896 ft 1105 kts 334°
2026-05-06 15:50 27.27992 120.83599 60056 ft 1106 kts 336°
2026-05-06 15:50 27.42337 120.77292 60037 ft 1105 kts 336°
2026-05-06 15:51 27.56679 120.70992 60052 ft 1107 kts 336°
2026-05-06 15:51 27.71197 120.65221 59918 ft 1108 kts 346°
2026-05-06 15:52 27.78637 120.63834 59852 ft 1089 kts 353°
2026-05-06 15:52 27.86154 120.63481 59220 ft 1077 kts
2026-05-06 15:52 27.93605 120.64207 57785 ft 1073 kts
2026-05-06 15:52 28.00963 120.65405 56377 ft 1063 kts
2026-05-06 15:53 28.08258 120.66404 55000 ft 1049 kts
2026-05-06 15:53 28.15474 120.67157 53604 ft 1035 kts
2026-05-06 15:53 28.22611 120.67738 52207 ft 1022 kts
2026-05-06 15:53 28.29555 120.68361 50820 ft 1008 kts
2026-05-06 15:54 28.36491 120.69025 49421 ft 993 kts
2026-05-06 15:54 28.43325 120.69697 47996 ft 977 kts
2026-05-06 15:54 28.50040 120.70365 46567 ft 960 kts
2026-05-06 15:54 28.56641 120.71027 45132 ft 943 kts
2026-05-06 15:55 28.63103 120.71786 43503 ft 927 kts
2026-05-06 15:55 28.69308 120.73506 42462 ft 907 kts 15°
2026-05-06 15:55 28.75099 120.76079 41498 ft 883 kts 24°
2026-05-06 15:55 28.80248 120.79576 40197 ft 864 kts 33°
2026-05-06 15:56 28.85015 120.83551 39168 ft 833 kts 33°
2026-05-06 15:56 28.89690 120.87260 37791 ft 803 kts 30°
2026-05-06 15:56 28.94332 120.90564 36631 ft 771 kts 28°
2026-05-06 15:56 28.98827 120.93693 35958 ft 743 kts 29°
2026-05-06 15:57 29.03105 120.96761 34965 ft 713 kts 30°
2026-05-06 15:57 29.07225 120.99753 33514 ft 690 kts 30°
2026-05-06 15:57 29.11199 121.02656 32288 ft 665 kts 30°
2026-05-06 15:57 29.15008 121.05448 31298 ft 637 kts 30°
2026-05-06 15:58 29.18749 121.07803 29883 ft 609 kts 17°
2026-05-06 15:58 29.22751 121.09153 28255 ft 593 kts
2026-05-06 15:58 29.26735 121.10233 26763 ft 585 kts 12°
2026-05-06 15:58 29.30603 121.11610 25350 ft 579 kts 17°
2026-05-06 15:59 29.34371 121.13143 23997 ft 571 kts 16°
2026-05-06 15:59 29.38110 121.14582 22524 ft 563 kts 15°
2026-05-06 15:59 29.41811 121.15961 21041 ft 556 kts 15°
2026-05-06 15:59 29.45478 121.17273 19640 ft 549 kts 15°
2026-05-06 16:00 29.49045 121.18562 18494 ft 539 kts 15°
2026-05-06 16:00 29.52557 121.19846 17496 ft 523 kts 15°
2026-05-06 16:00 29.56013 121.21112 16198 ft 518 kts 16°
2026-05-06 16:00 29.59406 121.22355 15182 ft 506 kts 16°
2026-05-06 16:01 29.62745 121.23578 14052 ft 501 kts 16°
2026-05-06 16:01 29.66030 121.24782 12959 ft 491 kts 17°
2026-05-06 16:01 29.69251 121.25966 12001 ft 480 kts 16°
2026-05-06 16:01 29.72405 121.27129 10915 ft 472 kts 16°
2026-05-06 16:02 29.75495 121.28270 10287 ft 456 kts 16°
2026-05-06 16:02 29.78381 121.29339 10263 ft 428 kts 16°
2026-05-06 16:02 29.81125 121.30359 10268 ft 402 kts 16°
2026-05-06 16:02 29.83711 121.31321 10270 ft 380 kts 16°
2026-05-06 16:03 29.86158 121.32231 10267 ft 360 kts 16°
2026-05-06 16:03 29.88486 121.33098 10270 ft 343 kts 16°
2026-05-06 16:03 29.90714 121.33856 10267 ft 325 kts
2026-05-06 16:03 29.92900 121.34151 10271 ft 308 kts
2026-05-06 16:04 29.94988 121.34320 10163 ft 305 kts
2026-05-06 16:04 29.97124 121.34570 9701 ft 311 kts
2026-05-06 16:04 29.99260 121.34925 9292 ft 310 kts
2026-05-06 16:04 30.01386 121.35294 8879 ft 309 kts
2026-05-06 16:05 30.03510 121.35635 8445 ft 308 kts
2026-05-06 16:05 30.05624 121.35963 8118 ft 304 kts
2026-05-06 16:05 30.07695 121.36282 7838 ft 297 kts
2026-05-06 16:05 30.09720 121.36593 7565 ft 291 kts
2026-05-06 16:06 30.11706 121.36897 7322 ft 285 kts
2026-05-06 16:06 30.13637 121.37192 7074 ft 282 kts
2026-05-06 16:06 30.15577 121.37487 6819 ft 280 kts
2026-05-06 16:06 30.17497 121.37778 6561 ft 277 kts
2026-05-06 16:07 30.19398 121.38072 6308 ft 274 kts
2026-05-06 16:07 30.21283 121.38359 6038 ft 272 kts
2026-05-06 16:07 30.23149 121.38648 5780 ft 270 kts
2026-05-06 16:07 30.25001 121.38939 5532 ft 267 kts
2026-05-06 16:08 30.26840 121.39222 5292 ft 265 kts
2026-05-06 16:08 30.28640 121.39499 5066 ft 264 kts
2026-05-06 16:08 30.30452 121.39778 4822 ft 262 kts
2026-05-06 16:08 30.32257 121.40057 4575 ft 261 kts
2026-05-06 16:09 30.34054 121.40332 4327 ft 260 kts
2026-05-06 16:09 30.35842 121.40607 4076 ft 260 kts
2026-05-06 16:09 30.37632 121.40881 3841 ft 259 kts
2026-05-06 16:09 30.39419 121.41155 3611 ft 259 kts
2026-05-06 16:10 30.41206 121.41428 3356 ft 259 kts
2026-05-06 16:10 30.42987 121.41702 3094 ft 258 kts
2026-05-06 16:10 30.44778 121.41983 3016 ft 264 kts
2026-05-06 16:10 30.46587 121.42266 2991 ft 259 kts
2026-05-06 16:11 30.48370 121.42541 2981 ft 261 kts
2026-05-06 16:11 30.50166 121.42822 2985 ft 258 kts
2026-05-06 16:11 30.51950 121.43099 3014 ft 257 kts
2026-05-06 16:11 30.53712 121.43373 3025 ft 255 kts
2026-05-06 16:12 30.55482 121.43651 3025 ft 259 kts
2026-05-06 16:12 30.57271 121.43930 2992 ft 260 kts
2026-05-06 16:12 30.59028 121.44202 2966 ft 257 kts
2026-05-06 16:12 30.60812 121.44481 2972 ft 263 kts
2026-05-06 16:13 30.62623 121.44765 2978 ft 261 kts
2026-05-06 16:13 30.64415 121.45044 2985 ft 260 kts
2026-05-06 16:13 30.66217 121.45326 3001 ft 259 kts
2026-05-06 16:13 30.68005 121.45607 3012 ft 262 kts
2026-05-06 16:14 30.69817 121.45890 3019 ft 272 kts
2026-05-06 16:14 30.71771 121.46191 3036 ft 283 kts
2026-05-06 16:14 30.73708 121.46492 3034 ft 280 kts
2026-05-06 16:14 30.75646 121.46798 3027 ft 285 kts
2026-05-06 16:15 30.77575 121.47102 3019 ft 281 kts
2026-05-06 16:15 30.79512 121.47404 3000 ft 282 kts
2026-05-06 16:15 30.81455 121.47708 3000 ft 284 kts
2026-05-06 16:15 30.83416 121.48016 2994 ft 284 kts
2026-05-06 16:16 30.85349 121.48323 2987 ft 277 kts
2026-05-06 16:16 30.87269 121.48624 2979 ft 279 kts
2026-05-06 16:16 30.89190 121.48924 2975 ft 278 kts
2026-05-06 16:16 30.91110 121.49225 2980 ft 278 kts
2026-05-06 16:17 30.93001 121.49518 2980 ft 277 kts
2026-05-06 16:17 30.94913 121.49818 2988 ft 278 kts
2026-05-06 16:17 30.96827 121.50121 2988 ft 277 kts
2026-05-06 16:17 30.98742 121.50422 2989 ft 278 kts
2026-05-06 16:18 31.00654 121.50723 2988 ft 277 kts
2026-05-06 16:18 31.02568 121.51025 2985 ft 278 kts
2026-05-06 16:18 31.04485 121.51329 2986 ft 278 kts
2026-05-06 16:18 31.06402 121.51630 2987 ft 278 kts
2026-05-06 16:19 31.08289 121.51930 2987 ft 276 kts
2026-05-06 16:19 31.10195 121.52230 2987 ft 277 kts
2026-05-06 16:19 31.12104 121.52527 2989 ft 276 kts
2026-05-06 16:19 31.14006 121.52825 2988 ft 275 kts
2026-05-06 16:20 31.15906 121.53124 2989 ft 276 kts
2026-05-06 16:20 31.17812 121.53426 2989 ft 277 kts
2026-05-06 16:20 31.19719 121.53728 2990 ft 277 kts
2026-05-06 16:20 31.21624 121.54030 2985 ft 276 kts
2026-05-06 16:21 31.23535 121.54334 2987 ft 278 kts
2026-05-06 16:21 31.25447 121.54636 2987 ft 277 kts
2026-05-06 16:21 31.27322 121.54931 3001 ft 274 kts
2026-05-06 16:21 31.29166 121.55222 2994 ft 261 kts
2026-05-06 16:22 31.30931 121.55505 2981 ft 250 kts
2026-05-06 16:22 31.32615 121.55775 2971 ft 239 kts
2026-05-06 16:22 31.34266 121.56038 2986 ft 240 kts
2026-05-06 16:22 31.35914 121.56299 2988 ft 238 kts
2026-05-06 16:23 31.37559 121.56559 2990 ft 242 kts
2026-05-06 16:23 31.39217 121.56902 2981 ft 243 kts 24°
2026-05-06 16:23 31.40509 121.58131 3011 ft 243 kts 65°
2026-05-06 16:23 31.40955 121.59993 3108 ft 241 kts 87°
2026-05-06 16:24 31.41104 121.61950 3075 ft 242 kts 87°
2026-05-06 16:24 31.41261 121.63896 3049 ft 239 kts 85°
2026-05-06 16:24 31.41511 121.65825 3016 ft 240 kts 82°
2026-05-06 16:24 31.41474 121.67738 2961 ft 234 kts 119°
2026-05-06 16:25 31.40464 121.69115 3043 ft 225 kts 160°
2026-05-06 16:25 31.38981 121.69683 3081 ft 225 kts 170°
2026-05-06 16:25 31.37471 121.70153 3062 ft 224 kts 165°
2026-05-06 16:25 31.36041 121.70809 3038 ft 224 kts 156°
2026-05-06 16:26 31.34653 121.71642 3016 ft 224 kts 156°
2026-05-06 16:26 31.33223 121.72302 3010 ft 216 kts 166°
2026-05-06 16:26 31.31838 121.72780 2983 ft 198 kts 167°
2026-05-06 16:26 31.30544 121.73200 2967 ft 192 kts 168°
2026-05-06 16:27 31.29236 121.73608 2675 ft 197 kts 166°
2026-05-06 16:27 31.27950 121.74043 2374 ft 188 kts 165°
2026-05-06 16:27 31.26718 121.74503 2123 ft 185 kts 163°
2026-05-06 16:27 31.25510 121.74977 1888 ft 182 kts 163°
2026-05-06 16:28 31.24328 121.75454 1655 ft 178 kts 162°
2026-05-06 16:28 31.23175 121.75913 1428 ft 177 kts 162°
2026-05-06 16:28 31.22004 121.76372 1214 ft 177 kts 162°
2026-05-06 16:28 31.20849 121.76821 969 ft 174 kts 162°
2026-05-06 16:29 31.19697 121.77262 767 ft 176 kts 162°
2026-05-06 16:29 31.18514 121.77708 537 ft 180 kts 161°
2026-05-06 16:29 31.17317 121.78167 295 ft 180 kts 162°
2026-05-06 16:29 31.16134 121.78608 43 ft 177 kts 161°
2026-05-06 16:30 31.15100 121.78989 30 ft 122 kts 162°
2026-05-06 16:30 31.14853 121.79082 32 ft 108 kts 162°
2026-05-06 16:30 31.14218 121.79330 28 ft 27 kts 150°
2026-05-06 16:30 31.14087 121.79465 28 ft 23 kts 131°
2026-05-06 16:31 31.14024 121.79567 29 ft 12 kts 114°
2026-05-06 16:31 31.14031 121.79638 29 ft 9 kts 77°
2026-05-06 16:31 31.14045 121.79710 29 ft 10 kts 80°
2026-05-06 16:31 31.14059 121.79780 29 ft 7 kts 74°
2026-05-06 16:32 31.14078 121.79850 29 ft 11 kts 71°
2026-05-06 16:32 31.14068 121.79916 29 ft 7 kts 131°
2026-05-06 16:32 31.14034 121.79966 29 ft 9 kts 126°
2026-05-06 16:32 31.14008 121.80013 29 ft 5 kts 123°
2026-05-06 16:33 31.13993 121.80040 29 ft 5 kts 123°
2026-05-06 16:33 31.13974 121.80073 29 ft 4 kts 123°
2026-05-06 16:33 31.13970 121.80080 29 ft 1 kts 123°
2026-05-06 16:34 31.13966 121.80087 29 ft 0 kts 123°